Location: Acquin
(50.7277°N, 2.0885°E)
Time: 01:40:14
(UTC+00:00)

Daily predictions for brighter satellites

Satellite Brightness Start Highest point End
(mag) Time Altitude Azimuth Time Altitude Azimuth Time Altitude Azimuth
CZ-4C R/B 4.3 02:34:41 22° ENE 02:34:41 22° ENE 02:37:05 10° NE
Cosmos 1980 Rocket 4.3 02:49:40 22° NNE 02:49:55 22° NE 02:54:15 10° E
IDEFIX/ARIANE 42P 4.3 03:08:07 10° NNE 03:10:59 29° NE 03:10:59 29° NE
Cosmos 1697 Rocket 3.4 03:32:35 51° ENE 03:32:35 51° ENE 03:37:46 10° SE
COSMOS 2406 3.9 03:33:36 51° ESE 03:33:39 51° ESE 03:39:13 10° NE
ATLAS 2AS CENTAUR R/B 4.1 03:32:40 29° NNW 03:35:12 36° NNE 03:42:01 10° E
Cosmos 2285 Rocket 4.1 03:38:29 70° NNE 03:38:29 70° NNE 03:44:08 10° NNE
Cosmos 2221 4.3 03:39:48 31° ENE 03:39:48 31° ENE 03:43:38 10° SE
Meteor 2-12 Rocket 4.4 03:44:54 79° E 03:44:54 79° E 03:50:59 10° NNE
Cosmos 2082 Rocket 4.1 03:50:13 10° SSE 03:54:55 27° ESE 03:59:39 10° NE
CZ-2C R/B 3.5 03:51:00 10° NNE 03:55:44 41° E 04:00:17 10° SSE
Lacrosse 5 rocket 3.4 04:01:34 20° NE 04:01:34 20° NE 04:02:52 10° NE
Lacrosse 5 4.1 03:58:02 13° SSE 04:01:01 20° SE 04:04:42 10° E
ADEOS 3.7 03:56:54 10° NNE 04:01:22 65° NNE 04:01:22 65° NNE
PAYLOAD A 4.4 04:02:41 10° NNE 04:07:56 65° ESE 04:12:54 12° S
Cosmos 1777 Rocket 4.1 04:09:58 61° S 04:10:48 74° ESE 04:16:01 10° NNE
USA 234 3.7 04:06:03 10° E 04:12:22 53° N 04:14:11 41° NW
Cosmos 1680 Rocket 4.1 04:11:54 26° N 04:14:47 56° ENE 04:20:00 10° SE
CZ-4C R/B 2.5 04:19:52 52° NW 04:19:54 52° NW 04:26:11 10° NE
Cosmos 1833 Rocket 3.2 04:15:59 16° S 04:20:18 57° ESE 04:25:49 10° NE
COSMOS 2441 4.2 04:16:11 10° NNE 04:21:04 87° WNW 04:21:22 79° SSW
COSMOS 2455 4.1 04:18:33 19° NNW 04:22:19 36° NE 04:27:50 10° ESE
SL-16 R/B 3.9 04:17:56 12° NNW 04:22:30 29° NE 04:27:26 10° ESE
Cosmos 1934 Rocket 3.9 04:17:54 10° S 04:24:12 90° N 04:30:37 10° N
Cosmos 2360 Rocket 4.4 04:23:49 10° NNW 04:27:53 19° NE 04:31:55 10° E
SL-4 R/B 2.2 04:28:59 79° WNW 04:29:14 83° N 04:34:07 10° E
H-2A R/B 2.5 04:26:03 10° NNE 04:30:35 81° WNW 04:30:50 77° WSW
NOSS 2-1 (E) 4.0 04:31:47 42° NNE 04:31:47 42° NNE 04:34:49 10° NE
MSX 3.7 04:25:53 10° NNE 04:31:37 72° WNW 04:34:50 27° SSW
Cosmos 1980 Rocket 2.2 04:31:29 26° NNW 04:34:51 80° ENE 04:40:33 10° SSE
Cosmos 2322 Rocket 3.8 04:30:20 10° NNW 04:35:19 31° NE 04:40:18 10° ESE
SKYMED 2 4.2 04:32:48 10° SSE 04:37:03 57° ENE 04:41:20 10° N
COBE Rocket 4.0 04:32:23 10° SSE 04:37:34 84° ENE 04:42:41 10° NNW
Cosmos 923 Rocket 3.8 04:35:54 37° NNW 04:38:03 81° WSW 04:43:15 10° SSE
Cosmos 2239 Rocket 4.5 04:35:56 38° SW 04:38:04 55° WNW 04:44:07 10° N
Meteor 1-27 4.2 04:37:58 10° NNW 04:43:47 71° W 04:49:35 10° S
Meteor 1-31 Rocket 2.6 04:41:39 10° NNE 04:45:30 90° WNW 04:47:20 30° SSW
Cosmos 2123 Rocket 4.0 04:39:32 10° NNW 04:45:32 54° W 04:51:31 10° SSW
Cosmos 2369 3.9 04:46:04 43° WNW 04:47:13 49° WSW 04:52:42 10° S
Cosmos 1869 3.5 04:44:32 13° N 04:48:04 67° ENE 04:51:57 10° SSE
Cosmos 158 Rocket 4.4 04:44:13 13° NNW 04:48:44 58° ENE 04:53:34 10° SE
STARLINK-60 4.1 04:50:17 36° S 04:50:53 40° SSE 04:54:05 10° ENE
FALCON 9 DEB 4.5 04:49:58 29° S 04:50:53 34° SE 04:54:03 10° E
IDEFIX/ARIANE 42P 3.3 04:47:56 10° N 04:51:47 32° NW 04:51:47 32° NW
Cosmos 1484 Rocket 3.5 04:49:27 10° NNE 04:53:23 56° E 04:57:19 10° S
Cosmos 2084 Rocket 3.9 04:51:20 21° SSW 04:54:07 62° SE 04:58:32 10° NE
Cosmos 2360 4.2 04:53:11 26° NW 04:56:24 64° WSW 05:02:03 10° SSE
GENESIS II 4.3 04:56:25 54° WSW 04:56:44 56° SW 05:00:42 10° SSE
Cosmos 1821 Rocket 4.4 04:59:31 33° W 05:00:46 36° WNW 05:06:25 10° N
CZ-4B R/B 4.0 04:58:44 10° N 05:03:09 64° WNW 05:07:35 10° SSW
Cosmos 1605 Rocket 3.9 04:57:31 10° SSW 05:03:43 72° WNW 05:09:54 10° N
Meteor PRIRODA 3.5 05:00:52 10° NNE 05:04:35 85° WNW 05:08:15 10° SSW
Helios 1A Rocket 4.3 05:04:01 10° NNE 05:07:57 40° E 05:11:49 10° S
Cosmos 2278 4.0 05:05:37 26° NW 05:08:25 46° WSW 05:13:49 10° S
Cosmos 1076 Rocket 3.4 05:04:36 10° S 05:08:58 85° W 05:13:21 10° N
ALOS 3.0 05:08:21 10° NNE 05:12:59 55° E 05:17:33 10° S
Meteor 2-20 4.4 05:08:15 10° NNW 05:14:25 73° W 05:20:32 10° S
Cosmos 1697 Rocket 3.3 05:14:23 27° WNW 05:16:03 32° WSW 05:20:59 10° SSW
Cosmos 2221 3.2 05:16:47 31° WNW 05:17:16 32° W 05:21:10 10° SSW
Meteor 1-11 4.5 05:11:55 10° SW 05:17:25 46° WNW 05:23:00 10° N
COSMOS 2406 3.8 05:15:43 26° W 05:18:10 37° NW 05:23:31 10° NNE
Cosmos 1892 3.7 05:15:08 10° S 05:18:48 49° E 05:22:27 10° NNE
PSLV R/B 3.6 05:15:03 10° N 05:18:51 73° WNW 05:22:42 10° SSW
Cosmos 2219 Rocket 4.4 05:18:51 10° N 05:22:46 19° NNE 05:26:40 10° ENE
FENGYUN 3A 4.1 05:18:41 10° NNE 05:24:07 66° ESE 05:29:31 10° S
STARLINK-67 2.9 05:24:31 42° NW 05:24:58 48° N 05:27:34 10° ENE
COSMO-SKYMED 1 2.7 05:20:52 10° S 05:25:05 51° W 05:29:21 10° NNW
CZ-4B DEB 4.2 05:21:05 10° NNE 05:26:35 85° ESE 05:32:04 10° SSW
STARLINK-46 2.9 05:26:11 40° WNW 05:27:00 60° N 05:29:58 10° ENE
Cosmos 2058 2.8 05:23:04 10° SSW 05:27:16 73° W 05:31:31 10° N
ATLAS 2AS CENTAUR R/B 3.1 05:20:07 12° NW 05:27:29 72° NE 05:34:43 10° SE
CZ-4B R/B 3.4 05:30:12 10° N 05:33:23 29° WNW 05:35:21 18° WSW
CZ-2C R/B 3.1 05:29:27 10° N 05:33:51 32° WNW 05:38:07 10° SW
Okean O Rocket 1.8 05:29:37 10° NNE 05:33:59 72° ESE 05:38:19 10° S
ASTEX 1 4.1 05:30:18 10° SSW 05:34:43 32° W 05:39:11 10° NNW
Cosmos 1461 3.7 05:33:30 24° WNW 05:34:53 30° NW 05:38:27 10° NNE
Cosmos 2082 Rocket 2.2 05:32:57 10° SW 05:38:37 62° NW 05:44:19 10° NNE
Lacrosse 5 rocket 2.2 05:37:13 19° NW 05:39:02 29° N 05:42:14 10° ENE
SJ 16-02 1.4 05:36:07 10° SSW 05:40:31 81° ESE 05:44:55 10° NNE
In-Cosmos 22 Rocket 4.1 05:35:49 10° SSW 05:41:09 87° W 05:46:40 10° NNE
Cosmos 1356 Rocket 4.1 05:37:50 10° NNW 05:41:46 35° W 05:45:40 10° SSW
SJ-12 3.9 05:37:50 10° N 05:41:57 62° WNW 05:46:03 10° SSW
Lacrosse 5 2.0 05:38:16 10° SW 05:43:22 79° SE 05:48:28 10° ENE
Cosmos 1408 3.7 05:40:34 10° S 05:44:08 49° E 05:47:43 10° NNE
METEOR-M 4.1 05:40:17 10° NNE 05:45:40 82° WNW 05:51:00 10° SSW
Shenzhou-11 Module 4.3 05:44:15 10° SW 05:45:57 15° S 05:47:40 10° SE
STARLINK-52 3.4 05:47:54 11° WSW 05:51:19 71° SSE 05:54:50 10° ENE
Cosmos 1825 3.5 05:48:24 10° SSE 05:51:59 44° E 05:55:36 10° NNE
USA 234 3.4 05:48:31 10° ESE 05:55:03 78° NNE 06:01:31 10° WNW
Cosmos 1459 Rocket 3.9 05:49:12 10° SSW 05:55:21 75° WNW 06:01:40 10° N
Tsikada Rocket 4.3 05:49:15 10° N 05:55:43 75° E 06:02:05 10° SSE
Cosmos 2016 Rocket 4.2 05:49:46 10° S 05:56:00 81° E 06:02:21 10° NNE
MOS 1-B 4.4 05:50:59 10° N 05:56:40 55° WNW 06:02:17 10° SW
Cosmos 2151 3.0 05:58:31 10° SSW 06:02:47 64° WNW 06:07:05 10° N
Cosmos 1833 Rocket 3.4 05:59:31 10° WSW 06:04:33 33° NW 06:09:37 10° NNE
H-2A R/B 4.4 06:03:05 10° NNW 06:05:22 14° NW 06:07:24 11° W
STARLINK-29 3.1 06:02:53 10° WSW 06:06:22 88° SSE 06:09:52 10° ENE
deb Kosmos-1763 4.2 06:02:56 10° SW 06:06:33 50° WNW 06:10:12 10° NNE
Radarsat Rocket 4.2 06:00:41 10° NNE 06:06:39 77° ESE 06:12:29 10° SSW
SL-16 R/B 2.2 06:01:26 10° NNW 06:07:05 67° WSW 06:12:43 10° SSE
BREEZE-M DEB (TANK) 3.9 06:05:32 10° WSW 06:08:09 24° SSW 06:10:28 10° SE
CZ-4 R/B 4.4 06:05:58 10° NE 06:08:34 17° E 06:11:09 10° SE
COSMOS 2455 2.9 06:02:41 10° NW 06:08:39 64° WSW 06:14:34 10° SSE
Cosmos 2100 Rocket 4.0 06:02:36 10° SSW 06:08:42 57° WNW 06:14:48 10° N
SL-4 R/B 2.4 06:04:36 12° WNW 06:09:10 90° SW 06:13:59 10° ESE
CZ-4C R/B 3.6 06:05:04 11° WNW 06:09:54 28° N 06:15:44 10° NE
Cosmos 2237 Rocket 4.3 06:06:08 10° N 06:10:01 18° NNE 06:13:52 10° ENE
Cosmos 2360 Rocket 2.6 06:07:17 10° NNW 06:12:59 68° ENE 06:18:38 10° SE
SL-27 R/B 2.8 06:11:57 10° SW 06:15:04 37° WNW 06:18:11 10° N
Cosmos 1048 Rocket 4.4 06:09:45 10° NNW 06:15:10 73° ENE 06:20:32 10° SSE
Gbstr 26 Del rocket 3.6 06:14:10 10° SW 06:17:47 48° SSE 06:21:28 10° ENE
COSMOS 2487 4.2 06:14:37 10° S 06:17:50 37° ESE 06:21:05 10° NE
Cosmos 1802 Rocket 4.1 06:11:48 10° SSW 06:18:10 64° WNW 06:24:35 10° N
Cosmos 1980 Rocket 3.5 06:14:09 10° NW 06:18:13 20° W 06:22:14 10° SW
SL-08 R/B 4.5 06:12:22 10° S 06:18:31 83° W 06:24:39 10° N
ATLAS CENTAUR R/B 4.1 06:14:56 10° S 06:19:10 30° ESE 06:23:20 10° ENE
Cosmos 2322 Rocket 2.3 06:14:12 10° NW 06:19:47 63° WSW 06:25:22 10° SSE
Cosmos 1400 Rocket 3.4 06:16:08 10° N 06:20:15 62° ENE 06:24:17 10° SSE
Cosmos 1515 Rocket 3.5 06:16:13 10° NNW 06:20:34 70° W 06:24:51 10° S
Cosmos 2061 Rocket 4.0 06:16:41 10° SSW 06:22:55 65° WNW 06:29:08 10° N
Cosmos 1328 Rocket 4.0 06:21:14 10° NNW 06:25:19 40° W 06:29:22 10° SSW
Meteor 1-26 Rocket 4.4 06:20:43 10° NNW 06:26:35 83° ENE 06:32:15 10° SSE
Cosmos 1484 Rocket 4.3 06:24:44 10° NNW 06:27:26 18° WNW 06:30:09 10° WSW
Cosmos 1743 Rocket 3.8 06:23:09 10° S 06:27:29 77° E 06:31:50 10° NNE
STARLINK-60 3.1 06:24:14 10° W 06:27:35 67° NNW 06:30:58 10° ENE
FALCON 9 DEB 3.1 06:24:24 10° W 06:27:50 73° NNW 06:31:17 10° ENE
Feng Yun 1-1 Rocket 4.4 06:23:36 10° NNE 06:29:02 78° ESE 06:34:27 10° SSW
Cosmos 990 Rocket 4.3 06:24:18 10° SW 06:29:13 44° WNW 06:34:13 10° NNE
ADEOS Rocket 3.7 06:27:28 10° SSE 06:35:17 84° WSW 06:42:52 10° NNW
